Location: Lawrence
(38.9720°N, 95.2350°W)
Time: 05:26:43
(UTC-06:00)

ISS - Visible Passes

Search period start: 24 November 2017 00:00
Search period end: 04 December 2017 00:00
Orbit: 402 x 407 km, 51.6° (Epoch: 24 November)

Date Brightness Start Highest point End Pass type
(mag) Time Alt. Az. Time Alt. Az. Time Alt. Az.
24 Nov -1.0 19:14:52 10° SSW 19:15:22 13° SSW 19:15:22 13° SSW visible
25 Nov -2.2 18:23:15 10° S 18:25:37 21° SE 18:25:37 21° SE visible
26 Nov -1.4 17:32:53 10° SE 17:33:41 11° SE 17:34:30 10° ESE visible
26 Nov -2.2 19:06:28 10° WSW 19:08:27 34° WSW 19:08:27 34° WSW visible
27 Nov -3.6 18:14:12 10° SW 18:17:24 55° SE 18:18:31 34° ENE visible
28 Nov -2.5 17:22:21 10° SSW 17:25:10 26° SE 17:27:59 10° ENE visible
28 Nov -2.2 18:58:34 10° W 19:01:09 30° NW 19:01:09 30° NW visible
29 Nov -3.4 18:05:53 10° WSW 18:09:06 57° NW 18:11:03 21° NE visible
30 Nov -1.6 18:51:07 10° WNW 18:53:29 18° NNW 18:53:31 18° NNW visible
01 Dec -2.2 17:58:02 10° W 18:00:54 27° NNW 18:03:16 13° NNE visible
02 Dec -1.2 18:44:01 10° NW 18:45:30 12° NNW 18:45:37 12° NNW visible
03 Dec -1.5 17:50:36 10° WNW 17:52:48 16° NNW 17:54:58 10° NNE visible
